Lapse_Rate
-0.7 -0.8 -0.9 -0.2 0.3 0.7 0.5 -0.2 1.4 1.7 2.0 2.8 4.0 3.1 1.3 0.9 0.4 0.7 2.0 2.5 2.8 3.4 4.7 5.9 8.9 8.4 4.2 3.8 3.4 3.3 3.3 3.3 3.0 2.6 2.5 2.4 2.2 2.1 2.1 2.1 3.1 4.2 4.9
0.8 -0.2 -0.9 -0.2 0.4 2.0 2.0 1.5 0.8 0.4 0.5 2.0 1.7 4.0 2.0 1.7 0.9 0.9 1.7 2.7 2.7 3.0 4.2 5.4 6.8 4.9 4.3 3.8 3.6 3.3 3.2 3.3 3.1 2.9 2.9 2.6 2.4 2.4 2.2 2.2 2.4 2.8 3.6
1.6 -0.2 -1.4 -0.6 0.5 2.0 1.7 1.6 1.1 1.1 0.5 2.5 1.9 2.9 3.4 1.8 1.5 1.4 1.1 1.6 2.3 2.6 3.5 4.1 3.7 3.7 4.0 3.9 3.7 3.2 3.2 3.0 3.0 3.1 2.9 2.8 2.7 2.5 2.6 2.5 2.3 2.2 2.7
2.5 0.4 -0.3 -0.2 0.7 0.9 0.9 0.2 0.1 0.5 0.5 1.2 1.7 2.3 2.3 4.0 2.5 1.9 1.8 1.8 2.3 2.5 3.9 3.8 3.3 3.2 3.1 3.1 3.5 3.4 3.3 3.1 3.0 2.9 2.6 2.5 2.6 2.8 2.9 2.7 2.6 2.5 2.5
2.1 0.9 -0.5 -0.3 0.7 0.1 -0.2 0.6 1.1 1.4 1.5 2.6 2.9 2.4 2.6 2.9 3.7 4.6 3.4 2.8 2.7 3.2 3.6 4.0 3.6 2.7 2.0 2.5 2.8 3.1 3.3 3.3 3.7 3.1 2.7 2.5 2.2 2.2 2.4 2.4 2.6 2.7 2.6
2.1 1.1 -0.2 -0.7 0.2 -0.8 -0.6 0.4 1.6 2.6 2.6 3.3 6.7 4.4 3.3 3.0 3.8 3.8 3.5 5.2 4.7 2.9 3.4 3.9 4.0 3.3 1.7 1.4 2.1 2.2 2.6 2.9 3.3 3.3 2.7 2.5 2.3 2.3 2.5 2.6 2.6 2.8 2.5
2.3 0.9 -0.0 -0.9 -0.5 -0.6 -0.7 0.3 1.3 2.9 3.4 2.9 3.0 3.3 3.6 3.9 3.8 3.3 3.9 4.3 4.3 5.4 4.1 2.9 4.0 3.5 2.8 0.9 1.5 1.7 1.8 2.2 2.6 2.9 2.6 2.3 2.0 2.0 2.3 2.5 2.8 3.0 2.9
2.1 0.5 0.2 -0.4 -0.9 -0.3 -0.3 -0.2 1.0 1.4 2.6 2.7 3.2 2.8 4.4 4.6 4.8 4.6 3.4 4.1 3.4 4.5 4.4 5.5 4.8 4.1 1.9 0.7 1.2 1.4 1.3 1.6 2.0 2.3 2.1 2.1 2.2 2.2 2.2 2.6 2.2 3.2 2.9
2.1 1.5 0.2 -0.2 -0.8 -0.4 -0.6 -0.9 0.3 1.2 1.4 2.3 3.0 2.4 4.0 3.3 3.7 4.3 4.3 3.9 3.4 2.5 4.0 5.3 5.4 5.8 3.2 0.9 0.5 1.1 0.6 0.8 1.3 1.7 1.9 2.1 2.2 2.2 2.2 2.0 2.0 3.4 3.1
2.1 1.8 0.9 0.3 -0.6 -0.7 0.0 -0.0 0.8 0.4 0.4 0.7 1.8 3.1 2.6 2.4 4.2 5.2 4.7 3.5 2.9 3.8 3.1 3.6 4.6 5.3 3.1 1.0 1.9 1.7 0.9 0.9 1.2 1.6 1.8 2.0 2.0 2.0 2.2 1.7 2.2 3.3 3.2
2.3 2.4 1.5 0.7 -0.1 -0.6 -0.6 0.0 0.4 0.7 0.4 0.9 1.6 2.0 2.8 2.7 2.6 2.4 3.6 3.6 4.0 2.9 3.9 3.9 4.3 4.8 4.4 1.3 2.0 2.9 1.5 1.2 1.5 1.8 2.0 2.1 2.1 2.0 1.9 1.8 2.2 3.4 4.0
2.8 3.0 2.9 1.8 1.0 -0.1 -0.1 0.1 1.1 1.3 1.1 1.5 2.3 2.4 2.0 2.0 1.9 1.7 1.4 1.8 2.8 3.3 3.8 3.7 4.1 4.4 3.9 2.7 3.3 3.8 2.8 1.5 1.3 1.7 1.6 2.3 2.5 2.9 2.2 2.0 2.4 2.8 3.5
3.7 2.9 2.8 2.7 2.1 0.5 0.6 0.3 1.0 2.0 2.0 1.1 1.7 0.9 0.7 1.1 1.0 1.2 1.5 2.2 3.0 3.6 4.4 3.8 4.0 5.0 4.1 4.0 4.3 4.2 3.7 1.4 2.4 2.2 2.6 2.7 3.0 3.5 2.6 2.4 2.6 2.9 2.9
3.8 2.8 3.0 3.0 2.9 2.8 2.2 1.7 2.0 1.7 2.1 1.3 1.7 1.2 0.8 1.0 1.2 1.4 1.7 2.2 4.2 4.2 3.9 3.6 4.1 4.9 5.0 5.3 5.4 5.1 4.6 3.4 4.8 4.4 3.5 2.9 4.1 4.3 3.1 3.0 2.8 2.8 3.1
3.9 3.4 3.6 3.7 3.5 2.9 3.0 2.8 2.8 2.4 2.4 2.0 2.0 1.6 1.4 1.1 0.9 0.8 0.9 1.8 2.4 3.4 4.3 4.3 4.2 5.2 5.8 6.1 6.1 5.6 5.0 5.7 5.7 4.8 4.3 4.4 5.8 4.6 3.3 3.2 3.7 3.4 3.5
4.5 3.5 3.8 3.6 3.6 3.8 3.5 2.5 2.3 2.8 2.3 2.8 2.6 2.1 1.9 1.7 1.3 1.2 1.1 2.1 1.7 2.5 3.3 3.9 4.4 4.8 6.4 6.9 6.6 5.8 6.0 6.7 6.7 6.7 6.5 7.4 7.2 5.2 4.6 4.6 4.8 4.5 4.3
4.3 3.6 3.1 3.0 2.7 2.7 1.8 2.3 2.2 3.9 3.5 3.4 2.7 2.9 2.2 2.2 1.5 2.0 1.2 1.4 2.6 2.7 2.9 3.6 3.8 4.7 5.2 4.8 5.9 6.5 6.9 6.7 5.9 7.1 8.0 7.2 6.1 5.2 5.7 6.3 6.0 6.2 6.8
4.4 4.1 3.5 3.3 2.8 2.7 2.8 2.9 4.0 4.1 4.2 3.0 2.6 2.7 2.4 2.7 1.5 1.6 1.2 0.9 2.4 2.4 3.9 4.1 4.1 4.4 5.1 5.7 6.0 5.9 6.6 6.4 5.2 5.8 5.1 5.2 5.4 6.1 6.5 6.0 6.1 7.1 7.8
4.1 4.4 3.7 2.8 2.8 3.3 3.8 3.4 4.6 3.5 4.3 3.4 2.6 1.8 1.8 2.1 1.6 2.2 1.3 1.8 2.6 4.2 4.3 4.9 4.8 4.9 5.5 4.6 5.0 5.0 4.9 4.0 4.3 3.8 3.9 4.3 4.1 4.7 4.7 5.0 6.5 7.5 7.4
3.6 3.9 3.4 2.9 2.8 2.8 3.3 3.7 3.4 3.1 3.7 3.2 3.0 2.6 1.9 0.5 1.0 2.1 2.4 2.8 2.9 3.7 3.6 4.1 4.0 4.3 4.7 4.2 4.1 3.7 3.0 2.9 2.4 3.1 3.7 3.8 2.7 3.6 4.6 6.3 7.2 6.8 8.0
3.2 3.1 3.4 3.4 3.3 3.4 3.5 2.9 3.2 3.5 3.2 2.5 1.8 1.3 0.9 0.9 2.7 2.5 1.6 1.8 2.3 2.8 2.9 2.9 3.5 3.4 3.8 3.5 3.6 2.3 2.8 1.9 1.7 2.8 2.9 2.9 3.6 3.7 4.2 6.1 6.8 8.2 7.8
2.8 2.7 2.7 2.5 2.7 4.4 3.2 3.4 3.1 3.3 3.0 2.5 1.0 1.8 2.8 3.0 2.6 2.7 2.3 1.9 1.8 2.1 2.1 2.3 2.6 3.1 3.3 3.5 3.0 2.4 2.3 1.8 2.6 2.5 4.3 2.4 3.3 4.0 6.0 7.3 8.4 8.7 7.3
2.3 2.3 2.4 2.4 3.3 3.5 3.9 4.8 4.0 2.7 2.2 2.0 2.8 3.2 3.3 1.7 1.8 3.4 2.0 2.2 2.3 2.7 1.5 1.6 2.0 3.0 3.2 3.5 3.0 2.8 3.1 3.5 3.9 4.0 5.8 4.0 3.8 5.2 6.8 7.6 6.8 6.9 7.0
2.3 2.0 2.4 2.6 2.7 2.9 4.4 4.7 3.3 2.4 2.5 3.8 3.4 3.0 3.2 3.8 3.9 3.2 3.2 2.3 2.4 3.0 3.3 2.4 1.7 2.4 2.9 3.8 3.6 3.4 3.0 4.0 3.9 3.8 5.6 5.6 4.8 6.3 6.6 6.5 5.9 6.3 8.1
1.9 1.8 1.8 1.8 2.3 2.8 3.6 3.2 2.2 3.0 4.1 3.6 4.1 4.1 4.0 3.9 3.9 3.6 2.7 2.4 1.9 3.0 3.2 4.3 3.2 4.3 6.1 6.7 7.2 5.2 4.5 6.3 5.9 6.2 6.1 7.0 5.3 7.2 7.0 6.1 5.9 7.1 7.7
0.8 1.3 1.6 2.2 2.6 2.9 3.7 3.5 3.9 3.6 3.8 4.4 4.1 5.1 5.2 4.1 3.8 5.0 4.0 3.0 1.7 -0.0 0.9 1.7 1.8 3.3 4.7 5.3 6.9 6.7 6.2 7.1 6.9 5.2 7.3 7.5 7.3 7.4 7.0 6.0 6.8 8.4 7.3
Wind_Speed
6 12 11 12 12 15 11 10 11 8 8 10 12 16 14 16 16 16 16 15 14 14 13 12 16 15 17 17 18 19 19 20 20 20 20 21 21 22 22 21 22 23 23
12 9 7 8 11 16 16 14 10 7 6 10 8 14 15 14 15 17 16 15 15 15 13 13 14 16 15 17 17 19 19 20 20 20 20 21 21 21 21 21 21 21 23
14 11 5 5 10 12 13 13 9 11 6 7 6 11 15 16 14 15 15 15 15 15 14 14 15 14 15 16 17 19 18 19 20 20 20 20 20 20 20 19 20 20 20
19 11 5 5 13 15 13 5 5 5 5 5 4 4 7 14 16 15 15 15 14 12 14 14 14 14 16 16 17 18 18 19 19 19 19 20 20 20 20 20 20 19 20
19 12 5 7 16 9 5 5 2 4 4 4 5 5 5 5 9 13 14 15 15 13 13 13 13 14 16 17 18 18 18 19 18 18 18 19 19 19 20 20 20 20 19
16 13 8 9 12 5 5 4 4 3 4 5 7 5 4 4 9 8 10 11 14 17 14 14 13 14 15 17 19 18 18 18 17 17 17 18 19 20 20 20 20 20 19
15 9 5 8 7 6 6 7 4 5 2 4 4 4 3 5 5 5 11 10 11 14 15 16 14 12 13 16 18 17 16 16 16 16 17 18 18 18 18 19 20 21 20
13 9 8 8 7 5 7 6 6 4 3 6 4 3 2 2 1 4 4 5 7 11 12 14 15 15 17 17 15 15 16 15 15 16 16 16 16 17 17 17 19 20 19
13 10 10 7 7 6 6 6 7 7 5 2 7 4 3 4 3 1 3 4 6 4 9 13 13 12 15 16 15 14 15 14 14 16 14 15 15 16 17 18 20 19 18
9 11 11 9 7 6 8 6 5 4 5 5 2 2 2 4 3 3 1 2 5 5 6 8 13 13 16 17 14 12 12 12 12 15 13 14 15 16 17 19 19 19 18
8 7 8 7 7 5 6 7 5 5 4 4 3 3 2 2 2 3 4 3 0 3 4 9 13 13 15 19 13 10 9 8 8 12 12 13 15 15 16 18 19 20 20
5 4 6 5 5 5 6 5 5 6 5 4 3 4 4 3 3 3 3 3 5 3 3 7 9 13 15 17 11 8 7 7 4 8 9 11 14 15 17 18 18 17 20
6 6 5 4 3 5 5 5 6 4 4 4 5 3 3 3 2 3 3 2 3 2 3 2 7 13 14 16 11 9 8 8 2 4 5 7 11 13 16 17 16 16 18
9 7 6 6 5 6 6 6 3 3 3 5 7 6 4 4 4 3 4 4 3 2 1 4 1 12 17 14 11 9 4 6 9 8 3 3 6 11 16 16 15 15 19
8 10 9 8 9 8 7 7 3 5 4 5 5 6 5 4 4 4 4 3 4 3 2 2 3 5 12 13 12 8 6 1 6 8 3 2 4 10 14 14 15 16 17
13 13 11 11 11 9 9 8 5 5 6 3 4 6 5 3 4 4 4 3 4 3 3 2 2 2 6 7 11 8 4 3 6 5 1 3 4 10 13 14 16 17 18
15 16 16 15 14 13 11 9 9 8 7 6 5 5 5 5 4 3 3 3 3 2 3 0 1 1 1 2 2 3 2 3 6 8 11 9 13 14 15 15 16 16 21
13 15 14 13 14 14 14 14 12 11 9 9 7 7 7 6 6 4 3 5 3 3 2 2 1 1 1 1 3 4 5 9 10 11 15 17 18 17 16 13 17 20 22
14 14 14 15 14 13 12 11 11 11 9 8 9 8 6 7 6 2 4 4 3 2 2 2 1 0 2 3 3 5 6 10 11 15 18 20 18 16 18 20 22 21 20
15 14 14 14 13 14 12 11 11 11 9 7 6 6 6 8 7 4 5 4 3 3 3 3 3 2 2 3 3 3 3 3 5 15 15 13 17 19 22 21 17 21 22
14 15 14 12 11 10 10 11 11 10 9 8 8 7 6 11 10 7 5 5 5 3 3 3 2 2 2 3 3 3 3 3 5 3 3 11 14 14 14 15 17 17 24
14 14 14 15 13 9 18 17 12 9 8 9 9 8 7 10 7 12 13 11 6 2 2 2 1 0 1 2 3 3 3 3 3 4 7 8 11 6 12 14 17 23 24
14 14 14 14 14 11 21 20 14 7 8 7 8 7 6 4 6 6 8 7 5 5 5 3 2 1 2 2 1 3 3 3 5 6 7 8 7 6 12 13 18 26 30
13 13 13 13 13 11 21 20 17 10 8 7 7 8 7 8 6 6 5 4 2 0 4 4 4 4 4 5 3 3 3 4 4 5 6 6 4 7 6 18 25 26 19
11 11 12 13 14 14 22 22 16 11 9 7 6 6 8 7 12 10 5 3 2 2 6 2 4 4 6 10 12 1 2 5 6 4 2 4 3 10 8 9 15 11 19
13 11 13 14 18 15 21 21 15 7 9 6 6 5 12 10 13 10 4 3 1 1 2 4 4 9 9 10 12 9 4 6 5 2 0 5 8 6 5 2 3 21 14
Wind_Direction
159 161 179 182 185 183 168 159 134 129 103 100 99 107 122 117 115 114 106 95 84 75 72 76 83 73 65 61 57 55 52 51 47 44 42 42 40 39 40 37 35 32 31
168 172 178 179 178 173 153 147 148 135 119 106 86 93 121 123 124 121 115 103 92 85 78 78 77 71 68 62 59 57 51 49 45 43 42 41 38 38 38 38 35 31 29
172 167 160 155 158 155 143 140 131 130 117 114 111 105 107 124 131 130 126 117 105 95 93 85 81 77 69 63 59 57 51 49 44 41 38 37 37 35 35 37 41 38 30
170 163 153 156 148 139 136 132 141 136 134 142 136 119 113 111 124 147 138 132 126 115 107 103 91 83 75 64 60 56 51 47 45 40 37 34 33 31 32 31 33 38 34
167 160 156 157 155 144 142 153 147 141 147 146 141 134 137 132 128 126 137 146 161 136 127 116 104 94 85 70 62 56 52 47 45 41 37 36 33 30 26 25 24 28 37
167 163 157 156 155 149 161 155 147 160 147 156 133 125 129 126 140 143 143 138 126 158 143 133 122 108 96 80 69 59 54 49 43 41 37 36 33 29 24 22 20 18 29
173 160 163 156 153 160 170 159 135 138 120 133 104 77 50 128 144 153 154 150 140 135 142 156 149 118 107 92 73 61 55 51 45 38 35 35 32 30 25 23 19 14 17
177 167 167 170 159 156 159 162 147 138 124 157 137 115 149 331 266 179 148 145 140 144 126 124 154 122 118 105 80 64 53 47 43 35 35 31 27 28 24 20 21 8 9
183 172 171 167 166 160 166 169 160 151 147 175 154 151 149 194 136 165 175 149 137 127 148 140 130 116 114 106 90 70 56 46 40 32 30 28 23 23 21 21 18 1 2
181 180 179 172 165 163 164 165 161 163 136 157 117 160 120 136 163 136 157 178 147 153 144 169 145 133 124 112 97 78 65 52 37 24 21 22 22 20 15 21 12 355 356
179 183 180 164 159 157 160 157 160 158 152 150 144 153 150 141 138 145 168 184 162 179 163 147 157 145 132 132 111 79 80 72 35 19 17 17 15 15 14 15 10 354 350
180 187 172 159 147 147 154 147 147 156 148 160 158 162 160 160 181 141 123 141 170 181 171 173 152 155 134 132 119 82 89 114 54 22 24 15 14 5 11 8 3 355 345
189 186 159 154 151 130 129 128 132 131 140 125 132 118 95 98 112 112 104 128 136 142 154 206 174 152 132 136 134 106 109 132 39 27 12 9 9 358 6 2 356 348 343
182 158 150 132 115 104 104 96 88 87 105 107 112 97 99 79 75 93 130 140 101 180 129 175 183 137 143 143 137 127 98 136 349 340 305 356 350 350 1 356 348 345 340
162 148 144 133 131 125 124 106 106 84 81 75 85 102 95 82 85 82 87 105 134 143 155 254 125 152 137 137 156 132 122 50 329 323 206 202 302 345 357 351 341 337 336
165 156 153 147 145 140 132 118 110 110 94 99 103 107 108 99 90 86 88 90 85 120 133 149 23 145 150 144 148 137 122 35 341 7 215 259 286 347 349 341 333 331 329
167 167 160 155 150 148 137 139 139 145 148 139 114 117 121 125 112 109 98 72 80 104 137 243 114 103 118 122 126 129 83 50 14 12 10 14 7 360 344 336 330 328 326
167 167 165 160 157 160 160 159 158 162 162 151 135 146 142 129 117 131 136 104 103 77 123 153 240 5 47 14 73 76 39 56 31 14 13 5 349 341 337 355 338 332 322
166 166 162 164 166 163 157 164 159 147 155 148 154 151 148 155 113 124 102 112 131 149 113 142 191 130 61 47 44 43 31 25 19 358 352 344 337 349 348 341 330 325 324
161 163 163 161 162 160 153 157 152 150 149 140 135 131 139 110 101 152 125 104 67 78 71 84 81 63 42 37 68 42 13 28 354 340 335 345 350 344 333 327 325 320 312
158 156 154 154 155 149 152 146 144 144 140 129 115 116 123 110 113 99 108 97 92 79 61 58 52 37 27 12 32 14 21 348 335 319 22 342 333 327 319 313 319 307 312
156 154 154 152 154 156 144 136 137 137 133 138 117 107 105 103 112 95 93 86 84 113 110 108 104 105 326 3 22 33 355 7 339 350 340 307 318 308 310 309 307 308 307
158 157 152 150 151 139 142 140 134 130 132 125 121 128 131 135 117 107 108 112 119 126 125 133 146 202 280 18 72 331 320 302 279 297 300 296 318 303 311 310 316 302 298
159 156 153 148 139 150 145 141 133 133 128 136 146 149 151 144 144 121 114 90 72 112 186 184 187 203 226 261 216 224 238 263 273 272 285 287 314 304 316 298 289 293 299
148 150 149 146 145 150 147 145 139 136 141 139 145 155 157 149 153 156 127 122 30 358 41 60 188 248 288 299 299 260 276 281 289 293 244 297 322 309 297 283 271 302 317
152 150 148 150 150 150 144 138 136 140 139 140 131 146 149 144 149 156 140 134 135 122 27 5 350 334 319 299 292 281 262 274 295 337 181 318 306 327 314 229 277 314 297